Sanford, NC

4:52 PM EST on February 25, 2017 (GMT -0500)
Raleigh Executive Jetport

Weather History for KTTA - September, 2013

Change the Weather History Date:

Tuesday, September 24, 2013

  Actual Average (KHRJ) Record (KHRJ)
Temperature  
Mean Temperature 59 °F -  
Max Temperature 73 °F 80 °F 93 °F (1970)
Min Temperature 45 °F 56 °F 37 °F (1966)
Degree Days  
Heating Degree Days 6    
Growing Degree Days 9 (Base 50)    
Moisture  
Dew Point 51 °F    
Average Humidity 83    
Maximum Humidity 99    
Minimum Humidity 49    
Precipitation  
Precipitation 0.00 in - - ()
Sea Level Pressure  
Sea Level Pressure 30.04 in    
Wind  
Wind Speed 0 mph (SW)    
Max Wind Speed 5 mph    
Max Gust Speed -    
Visibility 6 miles    
Events Fog    
Averages and records for this station are not official NWS values.
T = Trace of Precipitation, MM = Missing Value Source: NWS Daily Summary

Daily Weather History Graph

Daily Weather History Graph

Search for Another Location

Airport or City:

Trip Planner

Search our weather history database for the weather conditions in past years. The results will help you decide how hot, cold, wet, or windy it might be!

Date:

Astronomy

Sep. 24, 2013 Rise Set
Actual Time 7:06 AM EDT 7:09 PM EDT
Civil Twilight 6:40 AM EDT 7:35 PM EDT
Nautical Twilight 6:10 AM EDT 8:04 PM EDT
Astronomical Twilight 5:40 AM EDT 8:34 PM EDT
Moon 10:36 PM EDT (9/24) 12:08 PM EDT (9/24)
Length of Visible Light 12h 54m
Length of Day
12h 03m
Waning Gibbous, 73% of the Moon is Illuminated
Sep 24
Waning Gibbous
Sep 26
Last Quarter
Oct 4
New
Oct 11
First Quarter
Oct 18
Full

Hourly Weather History & Observations

Time (EDT) Temp. Dew Point Humidity Pressure Visibility Wind Dir Wind Speed Gust Speed Precip Events Conditions
12:15 AM 48.6 °F 47.8 °F 97% 30.08 in 4.0 mi Calm Calm - N/A   Scattered Clouds
12:35 AM 48.4 °F 47.7 °F 97% 30.08 in 3.0 mi Calm Calm - N/A   Scattered Clouds
12:55 AM 47.5 °F 46.8 °F 97% 30.08 in 2.0 mi Calm Calm - N/A   Mostly Cloudy
1:15 AM 47.1 °F 46.4 °F 97% 30.08 in 5.0 mi Calm Calm - N/A   Mostly Cloudy
1:35 AM 46.4 °F 45.7 °F 97% 30.08 in 7.0 mi Calm Calm - N/A   Mostly Cloudy
1:55 AM 46.0 °F 45.3 °F 97% 30.09 in 5.0 mi Calm Calm - N/A   Scattered Clouds
2:15 AM 45.9 °F 45.3 °F 98% 30.09 in 3.0 mi Calm Calm - N/A   Scattered Clouds
2:35 AM 45.7 °F 45.1 °F 98% 30.09 in 2.5 mi Calm Calm - N/A   Scattered Clouds
2:55 AM 45.5 °F 44.8 °F 97% 30.09 in 4.0 mi Calm Calm - N/A   Mostly Cloudy
3:15 AM 45.5 °F 44.8 °F 97% 30.08 in 5.0 mi Calm Calm - N/A   Overcast
3:35 AM 45.5 °F 45.0 °F 98% 30.08 in 7.0 mi Calm Calm - N/A   Overcast
3:55 AM 46.0 °F 45.5 °F 98% 30.08 in 1.5 mi Calm Calm - N/A   Overcast
4:15 AM 46.0 °F 45.5 °F 98% 30.08 in 0.8 mi Calm Calm - N/A   Overcast
4:35 AM 46.2 °F 45.5 °F 97% 30.08 in 0.2 mi Calm Calm - N/A Fog Fog
4:55 AM 46.2 °F 45.7 °F 98% 30.08 in 0.5 mi Calm Calm - N/A Fog Fog
5:15 AM 46.4 °F 45.9 °F 98% 30.08 in 2.5 mi Calm Calm - N/A   Mist
5:35 AM 46.9 °F 46.4 °F 98% 30.08 in 4.0 mi Calm Calm - N/A   Mist
5:55 AM 46.9 °F 46.4 °F 98% 30.09 in 7.0 mi Calm Calm - N/A   Unknown
6:15 AM 46.4 °F 45.7 °F 97% 30.09 in 4.0 mi Calm Calm - N/A   Mist
6:35 AM 46.8 °F 46.4 °F 99% 30.09 in 5.0 mi Calm Calm - N/A   Overcast
6:55 AM 46.6 °F 46.0 °F 98% 30.09 in 5.0 mi Calm Calm - N/A   Mostly Cloudy
7:15 AM 46.4 °F 45.7 °F 97% 30.09 in 4.0 mi Calm Calm - N/A   Mist
7:35 AM 46.6 °F 46.0 °F 98% 30.10 in 4.0 mi Calm Calm - N/A   Mist
7:55 AM 47.5 °F 46.9 °F 98% 30.10 in 3.0 mi Calm Calm - N/A   Mist
8:15 AM 49.1 °F 48.4 °F 97% 30.11 in 3.0 mi Calm Calm - N/A   Mist
8:35 AM 50.4 °F 50.0 °F 99% 30.11 in 5.0 mi Calm Calm - N/A   Mostly Cloudy
8:55 AM 51.1 °F 50.4 °F 97% 30.10 in 7.0 mi Calm Calm - N/A   Mostly Cloudy
9:15 AM 51.8 °F 50.9 °F 97% 30.11 in 7.0 mi Calm Calm - N/A   Scattered Clouds
9:35 AM 52.9 °F 51.4 °F 95% 30.11 in 7.0 mi Calm Calm - N/A   Mostly Cloudy
9:55 AM 53.8 °F 51.3 °F 91% 30.11 in 10.0 mi Calm Calm - N/A   Mostly Cloudy
10:15 AM 55.2 °F 50.9 °F 85% 30.11 in 10.0 mi Calm Calm - N/A   Scattered Clouds
10:35 AM 57.4 °F 52.2 °F 83% 30.11 in 10.0 mi SW 3.5 mph - N/A   Clear
10:55 AM 59.2 °F 52.9 °F 80% 30.10 in 10.0 mi Calm Calm - N/A   Clear
11:15 AM 62.6 °F 54.5 °F 75% 30.10 in 10.0 mi Calm Calm - N/A   Clear
11:35 AM 65.3 °F 54.5 °F 68% 30.09 in 10.0 mi SSW 3.5 mph - N/A   Unknown
11:55 AM 66.9 °F 53.8 °F 63% 30.09 in 10.0 mi SSW 4.6 mph - N/A   Unknown
12:15 PM 67.6 °F 54.9 °F 64% 30.08 in 10.0 mi North 3.5 mph - N/A   Unknown
12:35 PM 69.1 °F 55.0 °F 61% 30.07 in 10.0 mi WNW 3.5 mph - N/A   Unknown
12:55 PM 70.0 °F 54.0 °F 57% 30.06 in 7.0 mi Calm Calm - N/A   Unknown
1:15 PM 70.0 °F 53.6 °F 56% 30.05 in 7.0 mi Calm Calm - N/A   Unknown
1:35 PM 71.8 °F 54.1 °F 54% 30.04 in 10.0 mi Calm Calm - N/A   Unknown
1:55 PM 72.3 °F 55.2 °F 55% 30.03 in 10.0 mi Calm Calm - N/A   Unknown
2:15 PM 70.7 °F 54.3 °F 56% 30.02 in 10.0 mi Calm Calm - N/A   Unknown
2:35 PM 71.4 °F 53.8 °F 54% 30.01 in 7.0 mi Calm Calm - N/A   Unknown
2:55 PM 73.4 °F 54.1 °F 51% 30.01 in 10.0 mi North 4.6 mph - N/A   Unknown
3:15 PM 71.1 °F 53.8 °F 54% 30.00 in 10.0 mi Calm Calm - N/A   Unknown
3:35 PM 73.6 °F 54.1 °F 50% 29.99 in 10.0 mi Calm Calm - N/A   Overcast
3:55 PM 73.8 °F 53.6 °F 49% 29.99 in 10.0 mi Calm Calm - N/A   Mostly Cloudy
4:15 PM 73.2 °F 54.1 °F 51% 29.99 in 10.0 mi Calm Calm - N/A   Mostly Cloudy
4:35 PM 72.3 °F 52.5 °F 50% 29.99 in 10.0 mi Calm Calm - N/A   Scattered Clouds
4:55 PM 69.1 °F 59.9 °F 72% 29.97 in 10.0 mi Calm Calm - N/A   Mostly Cloudy
5:15 PM 72.0 °F 57.2 °F 60% 29.97 in 10.0 mi Calm Calm - N/A   Mostly Cloudy
5:35 PM 72.7 °F 55.2 °F 54% 29.97 in 10.0 mi SE 3.5 mph - N/A   Mostly Cloudy
5:55 PM 72.5 °F 55.6 °F 55% 29.97 in 10.0 mi Calm Calm - N/A   Scattered Clouds
6:15 PM 72.0 °F 56.3 °F 58% 29.96 in 10.0 mi Calm Calm - N/A   Scattered Clouds
6:35 PM 69.3 °F 59.5 °F 71% 29.96 in 10.0 mi Calm Calm - N/A   Mostly Cloudy
6:55 PM 65.5 °F 60.3 °F 83% 29.96 in 10.0 mi Calm Calm - N/A   Mostly Cloudy
7:15 PM 63.5 °F 58.5 °F 84% 29.96 in 10.0 mi Calm Calm - N/A   Clear
7:35 PM 60.8 °F 58.1 °F 91% 29.97 in 10.0 mi Calm Calm - N/A   Clear
7:55 PM 59.2 °F 57.0 °F 93% 29.97 in 10.0 mi Calm Calm - N/A   Clear
8:15 PM 58.1 °F 56.1 °F 93% 29.97 in 7.0 mi Calm Calm - N/A   Clear
8:35 PM 56.5 °F 54.9 °F 94% 29.97 in 7.0 mi Calm Calm - N/A   Clear
8:55 PM 56.3 °F 54.9 °F 95% 29.97 in 5.0 mi Calm Calm - N/A   Mostly Cloudy
9:15 PM 55.8 °F 54.5 °F 96% 29.97 in 1.0 mi Calm Calm - N/A   Overcast
9:35 PM 54.9 °F 53.8 °F 96% 29.97 in 5.0 mi Calm Calm - N/A   Mostly Cloudy
9:55 PM 54.7 °F 53.6 °F 96% 29.97 in 3.0 mi Calm Calm - N/A   Overcast
10:15 PM 54.3 °F 53.4 °F 97% 29.97 in 1.5 mi Calm Calm - N/A   Overcast
10:35 PM 54.3 °F 53.4 °F 97% 29.97 in 5.0 mi Calm Calm - N/A   Mostly Cloudy
10:55 PM 53.8 °F 53.1 °F 97% 29.98 in 5.0 mi Calm Calm - N/A   Overcast
11:15 PM 53.4 °F 52.5 °F 97% 29.97 in 4.0 mi Calm Calm - N/A   Overcast
11:35 PM 53.6 °F 52.7 °F 97% 29.97 in 4.0 mi Calm Calm - N/A   Overcast
11:55 PM 52.7 °F 52.0 °F 97% 29.97 in 5.0 mi Calm Calm - N/A   Mostly Cloudy